STARLINK-38141, 100188

Orbit data source: Space-Track

STARLINK-38141, 100188 is a payload satellite owned by SpaceX/Seattle (US) in SSO that was launched on Sat, 01 Aug 2026 UTC launched from the Air Force Western Test Range (AFWTR). Payload-class satellites include a variety of spacecraft equipped with specific instruments for various scientific and technological missions. These include communications satellites like Starlink; space stations such as the ISS; scientific satellites like the Hubble; Earth observation satellites from companies like Planet Labs, Umbra, and HawkEye 360; GPS; miniature CubeSats for education and research; and military/defense satellites.

Not visible in the next 10 days
Identifier
100188, 2026-175K
Orbit
SSO
Country
Flag of USUS
Related business
Manufacturer
SpaceX/Seattle
Mission
Operational spacecraft
Bus & Motor
STARLINK V2MO, Unknown motor
Mass
575 kg wet, ~530 kg dry
Launch date (UTC)
2026-08-01 (1 month ago)
Launch vehicle
Unknown
Launch site
Air Force Western Test Range (AFWTR)
Object type
Payload
Rocket body
Debris
Shape & HBR
BOX + PAN, 17.7 m
Radar Cross Section
Large (>1 m²)

Expand to show TLE details & history
Last TLE update: 8 hours ago

TLE from 8 hours ago
0 STARLINK-38141
1 A0188U 26175K   26249.53489338  .00150231  00000-0  99027-3 0  9996
2 A0188  97.2835  91.2154 0000892  76.1063 284.0301 15.75194789  6973
Epoch: 2026-09-06T12:50Z
TLE epoch observation values (Epoch: 2026-09-06T12:50:14.788Z)
Latitude
-0.00004°
Longitude
-86.97484°
Altitude
347.1 km
Speed
7.701 km/s
True Right ascension
06h 04m 51s
True Declination
0° 00' 00"
Sunlit
Object was in daylight at epoch
Visualization orbit readout
Latitude
Unknown
Longitude
Unknown
Altitude
Unknown
Speed
Unknown
Apparent Right ascension
Unknown
Apparent Declination
Unknown
Sunlit
N/A
Visualization observer readout
Local Sidereal Time
13:00:45
Azimuth
Unknown
Elevation
Unknown
Doppler factor
Unknown
Orbital elements
Apogee altitude
341.564 km
Perigee altitude
340.365 km
Semi-major axis
6,719.101 km
Eccentricity
0.00009
Inclination
97.2835°
RAAN
91.2154°
Arg. of periapsis
76.1063°
True anomaly
284.02018°
Mean anomaly
284.0301°
Eccentric anomaly
284.02514°
Mean motion
3.94073 °/min
Orbital period
91.35 mins
BSTAR
0.00099027
Loading maneuver chart data...
Computing Atmospheric mass density...
Loading historical data...
Loading historical data...
Loading historical data...
Loading historical data...
Loading historical data...
Loading historical data...
Loading historical data...

Documentation

Showing up to 5 results
|